Temperature
17 18 18 18 18 18 18 18 18 18 18 17 17 17 17 16 16 15 14 14 14 13 13 12 12 11 11 11 11 12 12 11 11 11 11 10 9 8 8 8 7 7 6
17 17 17 18 18 18 18 18 18 18 18 17 17 17 17 17 17 16 15 14 14 13 13 12 12 12 11 11 11 11 11 11 11 11 11 10 9 8 8 7 7 7 6
16 17 17 17 17 17 18 18 18 18 18 17 17 17 17 16 16 15 15 14 14 13 13 13 12 12 11 11 11 11 11 11 11 11 10 10 10 9 8 7 7 6 6
16 16 17 17 17 17 17 17 17 17 17 17 17 17 17 16 16 16 16 15 14 14 13 13 12 12 11 11 11 11 11 11 11 10 10 9 9 9 8 7 7 6 6
17 17 17 17 17 17 17 17 17 17 17 17 17 17 17 17 17 16 16 15 15 14 13 13 12 12 11 11 11 11 11 10 10 10 9 9 8 8 7 7 6 6 5
17 17 17 16 16 16 16 16 16 16 16 16 16 16 16 16 16 16 15 15 14 13 13 12 12 12 11 11 11 10 10 10 10 9 9 8 7 7 6 5 5 4 5
16 16 16 16 16 16 16 16 16 16 16 16 16 16 16 16 16 16 16 15 14 13 13 12 12 11 11 11 10 10 10 9 9 9 8 7 7 6 5 4 3 2 3
14 14 15 15 15 15 15 15 15 15 15 15 15 15 15 16 16 16 15 15 15 14 13 12 11 11 10 10 9 9 9 8 8 8 7 7 6 5 4 3 2 1 1
13 13 13 13 14 14 14 14 15 15 15 15 15 14 14 15 15 15 15 14 14 13 12 11 11 10 9 9 9 8 8 8 7 7 6 6 5 4 3 2 1 -0 -2
12 12 12 12 12 13 13 13 14 14 14 14 14 14 14 14 14 15 14 14 13 12 11 11 10 9 8 8 8 8 7 7 7 6 6 5 4 3 2 1 0 -1 -2
10 10 11 11 11 12 12 13 13 13 13 13 13 13 13 13 13 14 13 13 12 11 10 10 8 7 7 7 7 7 6 6 6 5 4 4 3 2 1 0 -0 -1 -2
9 9 9 10 10 10 11 12 12 12 12 13 12 12 12 12 13 13 12 11 11 10 9 8 7 6 6 6 6 6 6 5 5 4 3 3 2 1 0 -0 -1 -2 -3
8 8 8 8 9 9 10 11 11 11 11 12 11 11 11 11 12 11 11 10 10 9 8 7 6 5 6 6 6 5 5 4 4 3 2 1 1 0 -0 -1 -2 -3 -4
7 7 7 8 8 8 9 9 10 10 10 10 10 10 10 11 11 10 10 9 9 7 6 5 5 5 5 5 4 4 4 3 2 2 1 1 0 -0 -1 -2 -3 -4 -5
6 6 6 7 7 7 8 8 8 9 8 8 8 8 9 9 9 9 8 7 6 5 4 4 4 4 4 3 3 3 2 2 1 1 0 0 -0 -1 -3 -4 -5 -6 -6
5 5 5 6 6 6 7 7 7 7 6 6 6 6 6 6 6 6 5 4 3 3 3 3 3 2 2 2 2 2 1 1 1 0 0 -0 -1 -2 -4 -5 -6 -7 -7
3 4 4 5 5 5 5 5 5 5 5 4 4 3 4 4 4 3 3 2 2 2 2 2 2 2 1 1 1 1 0 0 0 -0 -1 -1 -2 -4 -5 -6 -6 -7 -8
2 3 3 3 3 3 4 3 3 3 3 2 1 1 2 2 2 2 2 1 1 2 1 1 1 1 0 0 -0 -0 -0 -0 -1 -1 -2 -3 -4 -4 -6 -7 -8 -8 -8
1 2 2 2 2 2 2 2 2 1 1 0 -0 0 1 1 1 1 1 1 1 1 1 0 0 -0 -0 -1 -1 -1 -1 -1 -2 -2 -4 -4 -5 -5 -7 -8 -9 -9 -8
1 1 1 1 1 1 1 1 0 -0 -0 -0 -0 0 1 1 1 1 1 1 1 0 -0 -1 -1 -1 -1 -1 -2 -2 -2 -3 -3 -3 -4 -5 -6 -8 -9 -9 -9 -9 -9
0 0 1 1 0 0 0 0 0 -0 -0 0 0 1 1 1 1 1 0 -0 -0 -1 -1 -1 -1 -1 -2 -3 -3 -4 -4 -5 -5 -5 -6 -6 -7 -9 -9 -9 -9 -9 -9
0 0 0 0 0 0 1 1 0 0 1 1 1 1 1 1 0 -0 -0 -1 -1 -1 -1 -1 -2 -2 -3 -3 -4 -4 -5 -7 -7 -7 -8 -8 -9 -9 -9 -9 -9 -9 -9
1 1 1 1 1 1 2 2 1 1 1 1 1 0 -0 -0 -1 -1 -1 -1 -1 -1 -2 -2 -2 -3 -3 -4 -5 -5 -6 -7 -8 -9 -9 -10 -10 -9 -9 -8 -9 -9 -9
2 3 3 2 2 2 2 2 2 1 1 1 0 -0 -0 -1 -1 -1 -1 -2 -2 -2 -2 -2 -3 -3 -4 -5 -6 -7 -8 -8 -9 -9 -9 -10 -9 -9 -9 -9 -9 -9 -9
3 3 3 3 2 2 2 2 1 1 1 0 -0 -1 -1 -1 -1 -2 -2 -2 -2 -2 -2 -3 -4 -5 -5 -7 -8 -9 -9 -10 -10 -10 -10 -9 -9 -9 -8 -8 -8 -8 -8
3 3 3 3 2 2 2 1 1 0 0 -0 -1 -1 -1 -1 -2 -2 -2 -2 -2 -3 -3 -4 -5 -7 -8 -9 -9 -9 -10 -10 -10 -10 -9 -9 -9 -9 -9 -9 -8 -8 -8
Wind_Speed
14 11 11 10 10 9 9 12 14 16 15 11 12 12 13 12 11 9 13 16 17 18 15 9 8 8 7 7 7 5 4 3 2 3 3 3 3 2 1 1 2 3 5
13 12 11 10 9 9 9 10 13 14 15 15 15 12 12 9 10 9 10 16 18 19 16 13 11 9 8 8 6 5 4 2 2 3 3 1 2 2 2 1 2 2 4
17 15 12 12 10 10 10 9 11 14 15 14 9 6 4 3 4 7 10 12 17 18 17 15 12 10 9 9 7 6 6 4 2 2 4 4 4 2 3 3 2 2 3
14 13 12 11 11 11 10 9 10 12 13 14 13 15 12 10 9 10 9 11 13 15 17 17 15 13 9 9 8 6 5 5 4 2 2 2 3 3 1 3 2 1 2
11 11 11 11 10 8 8 8 8 10 11 14 16 18 12 9 6 8 10 10 9 11 14 16 14 13 10 10 8 6 6 4 5 4 3 2 2 2 2 3 4 4 3
9 9 8 6 6 5 5 5 6 7 10 14 16 18 16 13 12 12 12 11 8 8 11 13 13 12 11 11 9 7 8 5 5 4 3 3 3 2 3 3 3 4 4
7 7 7 6 6 5 4 4 4 6 8 12 14 16 17 19 19 17 15 14 11 8 14 13 13 12 11 10 9 8 7 7 7 5 3 3 3 3 3 3 3 3 3
7 7 7 7 6 5 4 4 4 5 7 10 13 13 14 14 13 15 15 15 13 10 12 11 11 11 12 11 9 8 6 5 6 6 5 3 3 3 3 3 2 2 3
9 9 8 7 7 5 5 5 5 5 7 9 10 11 13 13 14 14 12 10 9 9 12 12 11 11 11 11 10 8 7 6 5 5 5 3 3 3 3 3 4 3 3
10 11 9 7 7 6 5 5 5 6 7 8 10 11 13 13 14 14 15 13 12 13 15 14 13 12 11 11 9 8 7 6 5 4 5 3 3 3 3 3 4 4 5
14 13 11 8 7 7 6 5 5 5 6 7 9 11 12 12 14 14 15 14 13 16 16 15 14 13 12 11 9 7 8 7 5 4 4 4 4 3 3 3 3 4 4
15 14 12 9 7 7 6 6 6 6 6 7 9 12 13 14 14 14 14 15 16 15 15 15 13 12 11 10 10 9 7 6 5 3 3 3 3 4 4 4 4 4 5
16 14 10 9 8 7 6 6 5 6 5 7 10 12 13 14 14 14 15 15 16 15 14 14 13 11 10 9 8 8 7 6 4 3 1 2 3 4 4 5 5 5 5
13 11 9 8 7 5 4 4 5 3 2 6 9 11 12 13 14 14 15 15 15 15 14 13 12 11 10 9 8 8 7 6 5 3 1 2 4 5 5 5 6 6 5
12 10 7 5 4 2 2 4 4 4 5 7 8 9 11 13 15 15 15 15 14 15 14 14 12 11 9 8 8 7 6 5 4 3 3 3 4 6 5 5 5 5 4
12 9 5 4 3 2 3 5 7 8 10 11 11 11 13 15 16 16 16 16 15 15 14 13 12 9 8 11 11 7 5 4 3 3 4 5 5 7 8 10 11 11 7
11 8 6 6 6 7 8 9 10 11 13 13 13 13 15 17 17 18 18 16 15 14 13 11 10 9 9 10 9 8 4 3 3 3 3 3 5 7 5 9 12 11 14
9 8 8 8 9 10 11 12 13 14 14 14 14 14 16 18 17 17 16 14 12 11 10 9 8 7 7 8 8 8 5 3 3 2 2 3 4 7 8 6 5 5 7
7 7 8 9 10 11 11 14 14 14 15 14 14 14 15 16 16 15 13 11 11 10 8 7 7 6 6 7 6 7 3 1 1 2 3 5 5 12 14 8 7 8 9
7 7 8 10 10 10 11 13 13 13 13 13 13 13 13 14 14 13 11 9 9 8 7 6 5 5 4 5 4 5 3 1 2 3 4 8 10 13 14 8 8 9 9
7 8 9 9 9 9 10 12 12 11 11 12 12 13 13 13 12 10 8 8 8 7 6 6 4 2 2 1 1 1 2 0 2 3 4 5 13 15 16 14 7 11 12
6 7 8 8 8 8 10 12 11 10 10 12 13 12 11 10 9 9 8 7 7 7 6 5 4 3 3 3 4 6 6 6 2 4 4 7 15 16 16 12 13 17 14
6 6 8 9 8 8 9 11 9 10 11 12 12 11 10 9 8 8 8 6 6 5 4 4 3 2 3 5 7 8 9 11 5 5 11 14 15 14 9 13 15 12 7
6 6 7 9 8 8 9 9 9 9 11 11 10 9 9 8 7 6 6 5 4 4 3 3 2 2 3 4 4 4 5 8 8 7 9 12 11 10 11 11 9 6 7
6 6 7 8 9 8 8 8 8 9 11 10 9 8 7 7 6 5 4 4 3 4 3 2 1 0 2 5 8 6 4 5 6 5 2 3 5 5 6 6 6 6 7
7 7 8 8 8 8 8 7 7 8 10 9 7 6 5 5 5 4 4 6 4 6 4 2 2 3 5 8 10 12 13 13 12 6 4 5 5 6 8 8 9 8 8
Wind_Direction
260 261 253 245 244 244 223 209 205 205 198 192 191 191 194 192 190 187 177 171 166 163 158 153 150 147 145 148 138 119 104 72 75 92 51 15 26 68 111 167 155 149 147
263 261 255 249 238 239 234 218 211 208 202 199 196 195 193 192 188 176 170 170 167 167 164 158 160 154 144 145 148 136 124 94 66 125 117 65 334 336 11 25 131 106 98
253 255 253 249 245 243 240 231 216 211 207 201 189 160 123 103 145 170 175 175 172 170 167 164 159 157 156 163 163 153 143 143 83 84 141 153 206 269 326 10 53 82 83
252 250 249 250 247 247 246 241 229 216 206 197 187 178 180 183 186 182 175 171 171 171 168 165 161 160 158 161 164 156 149 141 144 109 74 122 144 158 288 323 344 8 68
252 250 247 244 248 251 251 248 237 223 208 199 194 191 189 179 159 156 159 165 168 169 166 165 161 161 160 160 154 148 144 139 149 152 141 116 87 110 154 269 313 329 322
257 250 249 243 249 256 256 251 238 228 209 201 199 195 185 164 156 161 167 168 165 165 167 167 163 161 159 157 152 144 144 139 136 137 140 147 150 163 162 218 267 285 293
264 252 243 228 227 234 243 243 230 231 214 204 203 200 188 175 174 173 174 171 171 172 175 169 164 160 155 149 145 141 142 141 141 143 141 141 148 144 149 173 246 277 291
308 286 263 244 231 230 228 237 235 235 219 208 205 199 187 180 179 176 174 177 178 172 165 160 158 152 149 148 145 140 139 140 143 147 145 145 155 149 156 167 178 285 297
324 309 294 280 263 251 240 235 237 239 227 211 201 192 183 178 175 173 167 163 154 151 151 149 149 148 147 146 145 143 141 144 149 153 153 150 155 149 154 156 162 187 261
320 309 300 288 276 270 266 260 244 235 232 214 198 189 181 175 169 165 164 160 155 152 151 149 149 148 145 144 142 139 142 146 151 155 155 160 165 164 166 172 180 183 203
302 295 290 281 274 279 276 272 269 253 232 207 189 174 168 163 163 166 164 158 152 152 153 152 151 150 148 146 142 141 149 151 153 155 171 192 184 187 197 199 203 210 204
295 286 278 275 273 275 282 281 275 257 232 199 175 167 160 158 161 161 157 152 150 150 149 148 148 148 146 144 143 145 148 147 151 156 170 207 206 213 215 215 225 230 224
295 286 276 272 273 272 283 294 290 271 234 180 163 157 157 157 155 151 148 146 143 141 142 142 143 140 135 128 125 124 120 114 111 113 165 236 226 236 236 234 237 241 247
303 295 283 279 279 281 295 318 324 306 194 153 150 150 151 145 140 138 137 136 135 135 133 129 123 119 114 111 110 108 102 95 85 71 44 277 241 240 243 242 243 246 256
316 311 305 298 302 317 355 12 12 35 86 105 113 118 119 120 121 121 121 120 121 120 116 112 106 104 104 107 106 100 95 87 67 33 349 303 277 267 265 258 245 241 250
327 325 328 352 13 35 61 65 63 64 79 88 93 101 108 110 109 108 107 106 105 105 104 104 106 101 102 108 103 100 91 79 51 359 335 314 301 302 313 307 301 296 290
340 353 17 36 50 62 73 77 78 80 84 89 94 99 104 102 102 102 100 99 100 99 98 98 99 100 107 111 110 107 104 79 46 13 358 353 342 347 311 301 302 301 301
0 22 43 55 59 66 74 80 84 86 89 92 95 97 99 99 99 99 98 98 99 99 100 102 108 116 130 131 125 112 97 82 56 37 17 323 314 315 304 281 280 277 282
25 41 54 66 72 75 82 87 87 90 93 94 95 96 99 101 101 100 99 100 102 101 104 117 134 143 148 146 135 128 124 106 346 313 319 329 317 313 312 310 298 288 282
41 55 62 70 75 79 87 90 91 92 93 95 95 94 96 98 99 101 102 104 109 116 121 123 134 149 169 173 152 143 164 213 297 310 316 327 321 312 311 305 292 292 287
52 62 70 71 73 81 90 92 92 93 96 96 94 92 92 96 100 102 107 113 112 107 103 102 100 126 171 178 346 17 155 253 323 318 311 304 315 313 313 314 302 296 305
64 68 74 70 67 78 91 92 89 92 95 96 95 94 95 99 104 105 100 97 100 99 101 104 89 58 31 19 3 3 356 340 322 297 287 291 310 316 321 320 310 312 322
79 77 81 77 68 71 88 95 95 99 99 97 96 95 91 89 93 97 98 91 91 100 106 109 99 58 25 9 9 352 337 328 320 289 303 309 317 325 326 315 316 324 321
95 95 93 89 83 81 85 97 104 103 101 98 93 91 91 86 80 83 91 98 105 110 114 109 91 35 358 335 310 293 300 310 304 293 300 318 328 328 320 317 316 309 299
105 101 102 102 99 97 95 94 97 102 99 94 92 88 87 91 85 82 94 114 129 134 122 119 120 41 305 299 317 323 299 289 284 313 352 347 327 322 316 312 310 308 308
116 111 109 110 106 102 96 90 92 102 108 105 98 97 98 98 99 99 81 76 85 77 82 165 220 252 286 317 332 327 324 326 329 346 334 319 316 314 317 317 314 311 305
Height
1460 1462 1464 1466 1467 1469 1471 1473 1475 1478 1482 1485 1488 1490 1491 1494 1496 1499 1502 1506 1508 1511 1514 1516 1518 1521 1522 1524 1525 1525 1526 1526 1525 1525 1525 1524 1524 1524 1524 1524 1523 1523 1522
1454 1456 1458 1460 1461 1462 1464 1466 1467 1470 1473 1476 1480 1483 1485 1487 1490 1493 1497 1501 1504 1507 1510 1512 1515 1518 1519 1521 1522 1523 1524 1524 1523 1523 1522 1522 1523 1522 1522 1521 1520 1520 1519
1447 1448 1451 1453 1455 1456 1458 1459 1460 1463 1466 1469 1473 1476 1479 1482 1485 1488 1491 1494 1498 1502 1505 1508 1511 1514 1516 1518 1520 1521 1521 1521 1521 1521 1521 1520 1519 1519 1519 1518 1517 1516 1516
1442 1443 1445 1447 1448 1450 1452 1453 1454 1455 1458 1461 1463 1466 1468 1472 1475 1479 1483 1488 1492 1496 1500 1503 1506 1509 1512 1515 1516 1518 1518 1519 1518 1518 1518 1518 1517 1516 1515 1515 1514 1513 1513
1438 1439 1440 1441 1443 1444 1445 1446 1447 1448 1450 1453 1455 1458 1461 1465 1469 1474 1478 1482 1486 1490 1494 1498 1501 1504 1507 1510 1512 1514 1515 1515 1515 1515 1514 1514 1513 1512 1512 1511 1510 1510 1509
1436 1436 1437 1437 1438 1439 1439 1439 1440 1441 1442 1445 1447 1450 1454 1457 1462 1466 1471 1475 1479 1483 1487 1492 1495 1499 1502 1505 1508 1510 1511 1511 1511 1511 1510 1510 1509 1508 1507 1506 1504 1503 1502
1434 1434 1434 1433 1433 1434 1434 1434 1434 1435 1436 1438 1440 1444 1447 1450 1455 1459 1464 1468 1471 1475 1480 1485 1489 1493 1496 1500 1503 1505 1506 1507 1507 1507 1506 1505 1504 1503 1502 1501 1499 1497 1495
1433 1432 1431 1430 1429 1429 1429 1429 1429 1430 1431 1432 1434 1437 1441 1444 1448 1453 1457 1461 1464 1469 1473 1478 1483 1487 1490 1494 1497 1500 1502 1503 1503 1503 1502 1501 1500 1499 1498 1497 1496 1492 1489
1433 1431 1428 1427 1426 1424 1424 1424 1425 1425 1426 1427 1428 1430 1433 1437 1442 1447 1451 1455 1458 1463 1467 1472 1477 1481 1485 1489 1493 1495 1497 1499 1499 1499 1498 1497 1496 1495 1494 1493 1491 1490 1485
1431 1429 1426 1423 1421 1420 1419 1419 1419 1419 1420 1421 1421 1423 1426 1430 1435 1440 1444 1448 1452 1457 1462 1466 1471 1476 1480 1485 1489 1491 1493 1495 1495 1494 1494 1493 1492 1491 1490 1488 1486 1484 1481
1428 1424 1421 1419 1417 1415 1414 1413 1414 1414 1414 1414 1415 1416 1419 1423 1428 1433 1438 1442 1447 1451 1456 1461 1466 1471 1476 1481 1485 1487 1489 1490 1490 1490 1489 1488 1487 1486 1485 1483 1481 1479 1476
1421 1417 1414 1412 1410 1409 1409 1408 1408 1408 1408 1408 1409 1410 1413 1417 1422 1427 1432 1437 1442 1447 1452 1457 1462 1468 1473 1477 1481 1484 1485 1486 1486 1485 1485 1484 1482 1481 1480 1477 1475 1473 1470
1414 1409 1406 1405 1404 1403 1403 1403 1402 1402 1402 1402 1403 1405 1408 1412 1417 1422 1428 1433 1437 1442 1447 1453 1460 1466 1471 1475 1478 1480 1481 1481 1481 1481 1480 1479 1477 1476 1474 1471 1469 1466 1463
1408 1404 1401 1399 1398 1397 1397 1397 1397 1397 1397 1397 1398 1400 1403 1407 1413 1418 1424 1429 1434 1439 1444 1451 1458 1464 1469 1473 1475 1477 1477 1477 1477 1476 1475 1474 1472 1470 1468 1465 1463 1460 1457
1405 1401 1398 1396 1394 1393 1393 1393 1393 1393 1393 1394 1395 1397 1400 1404 1410 1415 1421 1426 1432 1437 1444 1451 1458 1464 1468 1471 1473 1474 1474 1473 1472 1471 1470 1469 1467 1464 1462 1459 1457 1454 1451
1405 1401 1398 1395 1393 1392 1391 1391 1391 1391 1391 1392 1394 1396 1399 1402 1408 1413 1419 1425 1431 1438 1446 1453 1459 1463 1467 1469 1470 1470 1470 1469 1468 1467 1465 1463 1461 1458 1456 1454 1452 1450 1447
1406 1401 1398 1395 1393 1392 1391 1391 1391 1392 1392 1393 1394 1397 1400 1404 1409 1414 1421 1428 1435 1442 1448 1455 1460 1463 1465 1466 1466 1466 1466 1465 1463 1462 1459 1457 1454 1452 1449 1447 1445 1443 1441
1407 1403 1400 1397 1396 1394 1393 1393 1393 1393 1393 1395 1397 1401 1404 1408 1413 1420 1426 1433 1439 1445 1450 1455 1459 1461 1462 1463 1464 1463 1462 1461 1458 1456 1453 1451 1448 1446 1444 1441 1439 1436 1434
1409 1406 1403 1401 1399 1398 1397 1396 1396 1397 1398 1400 1403 1407 1411 1415 1420 1426 1432 1437 1442 1446 1451 1455 1458 1460 1461 1461 1461 1460 1458 1456 1454 1451 1448 1445 1442 1441 1438 1437 1434 1430 1428
1411 1408 1406 1405 1403 1403 1402 1402 1402 1403 1405 1408 1411 1415 1418 1422 1426 1431 1436 1440 1444 1448 1452 1455 1458 1459 1460 1459 1457 1455 1453 1451 1448 1446 1444 1441 1438 1436 1435 1432 1429 1425 1421
1413 1412 1410 1409 1408 1408 1408 1407 1409 1410 1412 1415 1418 1421 1424 1428 1432 1436 1440 1444 1447 1450 1453 1456 1457 1458 1457 1455 1453 1451 1448 1446 1443 1441 1439 1437 1434 1432 1430 1427 1423 1419 1417
1417 1415 1414 1413 1413 1413 1413 1414 1415 1417 1419 1421 1424 1427 1431 1434 1438 1441 1444 1447 1450 1452 1454 1455 1455 1455 1453 1452 1450 1448 1445 1442 1440 1437 1435 1432 1430 1428 1425 1421 1418 1415 1411
1420 1419 1419 1418 1418 1419 1420 1420 1422 1424 1426 1428 1431 1433 1436 1439 1443 1446 1448 1450 1452 1453 1454 1454 1453 1452 1450 1448 1446 1444 1441 1439 1436 1433 1430 1428 1426 1422 1419 1416 1413 1410 1406
1424 1424 1424 1424 1424 1426 1427 1428 1429 1431 1433 1434 1437 1439 1441 1444 1446 1448 1450 1451 1452 1453 1452 1451 1450 1448 1446 1444 1442 1440 1437 1435 1432 1429 1426 1424 1421 1418 1415 1412 1409 1406 1403
1427 1427 1428 1429 1429 1431 1432 1434 1435 1437 1438 1440 1441 1444 1446 1447 1449 1450 1451 1452 1452 1451 1450 1448 1447 1445 1443 1441 1440 1437 1434 1431 1429 1426 1422 1419 1416 1413 1411 1408 1405 1402 1399
1429 1430 1431 1432 1433 1435 1437 1438 1440 1442 1443 1444 1445 1447 1448 1449 1450 1451 1451 1451 1450 1449 1447 1446 1444 1442 1441 1439 1436 1434 1431 1428 1425 1422 1418 1416 1413 1410 1407 1404 1401 1398 1395